Flag for Denmark Weather past 2 weeks in Aalborg, Denmark

Now
63 °F

Sprinkles. Passing clouds.


Feels Like: 63 °F
Forecast: 60 / 73 °F
Wind: 7 mph from South

Location: Aalborg Airport

Current Time: Aug 1, 2014 at 1:48:01 AM

Latest Report: Aug 1, 2014 at 1:20 AM


Visibility: N/A

Pressure: 29.83 "Hg

Humidity: 88%

Dew point: 59 °F

Location of AalborgLocation

Historic Weather in Aalborg — Graph

°F

Aalborg temperature yesterday

Maximum temperature yesterday: 73 °F (at 5:20 PM)
Minimum temperature yesterday: 61 °F (at 4:20 AM)
Average temperature yesterday: 66 °F

Past Weeks' High & Low Weather Summary

 TemperatureHumidityPressure
High86 °F (Jul 25, 1:50 PM)100% (Jul 18, 1:20 AM)30.27 "Hg (Jul 18, 1:20 AM)
Low55 °F (Jul 17, 5:20 AM)29% (Jul 24, 1:20 PM)29.74 "Hg (Jul 30, 7:50 AM)
Average71 °F68%30.03 "Hg
* Reported Jul 17 12:20 AM — Aug 1 12:20 AM, Aalborg, Weather by CustomWeather, © 2014

Note: Actual official high and low records may vary slightly from our data, if they occured in-between our weather recording intervals... More about our weather records

Advertising

Aalborg weather history for previous 24 hours

 ConditionsComfort  
Time TempWeatherWind HumidityBarometerVisibility
12:20 AM
Aug 1
64 °FPassing clouds.7 mph83%29.83 "HgN/A
11:50 PM
Jul 31
63 °FPassing clouds.7 mph88%29.83 "HgN/A
11:20 PM63 °FPassing clouds.9 mph88%29.83 "HgN/A
10:50 PM63 °FPassing clouds.7 mph88%29.83 "HgN/A
10:20 PM64 °FPassing clouds.8 mph83%29.83 "HgN/A
9:50 PM64 °FPassing clouds.8 mph83%29.83 "HgN/A
9:20 PM68 °FPassing clouds.9 mph73%29.83 "HgN/A
8:50 PM68 °FPassing clouds.12 mph69%29.83 "HgN/A
8:20 PM70 °FPassing clouds.15 mph64%29.83 "HgN/A
7:50 PM70 °FScattered clouds.15 mph64%29.80 "HgN/A
7:20 PM70 °FScattered clouds.16 mph60%29.80 "HgN/A
6:50 PM72 °FPassing clouds.18 mph57%29.80 "HgN/A
6:20 PM72 °FPassing clouds.20 mph53%29.80 "HgN/A
5:50 PM73 °FPassing clouds.18 mph53%29.80 "HgN/A
5:20 PM73 °FPassing clouds.18 mph50%29.80 "HgN/A
4:50 PM72 °FScattered clouds.16 mph53%29.80 "HgN/A
4:20 PM72 °FScattered clouds.16 mph57%29.83 "HgN/A
3:50 PM70 °FScattered clouds.15 mph57%29.83 "HgN/A
3:20 PM72 °FScattered clouds.22 mph53%29.80 "HgN/A
2:50 PM70 °FScattered clouds.13 mph60%29.80 "HgN/A
2:20 PM70 °FPartly sunny.12 mph64%29.80 "HgN/A
1:50 PM70 °FPartly sunny.14 mph60%29.80 "HgN/A
1:20 PM70 °FPartly sunny.10 mph64%29.80 "HgN/A
12:50 PM72 °FScattered clouds.16 mph65%29.80 "HgN/A
12:20 PM68 °FScattered clouds.12 mph73%29.80 "HgN/A
11:50 AM64 °FSprinkles. Broken clouds.21 mph88%29.80 "Hg4 mi
10:50 AM70 °FPassing clouds.15 mph73%29.77 "HgN/A
10:20 AM66 °FPassing clouds.12 mph88%29.77 "HgN/A
9:50 AM64 °FScattered clouds.8 mph88%29.77 "HgN/A
9:20 AM64 °FPartly sunny.13 mph83%29.77 "HgN/A
8:58 AM64 °FSprinkles. Scattered clouds.14 mph88%29.77 "HgN/A
8:20 AM64 °FSprinkles. Scattered clouds.15 mph88%29.77 "HgN/A
7:50 AM64 °FPassing clouds.12 mph88%29.77 "HgN/A
7:20 AM63 °FPassing clouds.7 mph88%29.77 "HgN/A
6:50 AM61 °FSprinkles. Passing clouds.6 mph94%29.77 "HgN/A
6:20 AM61 °FPassing clouds.6 mph94%29.77 "HgN/A
5:50 AM61 °FPassing clouds.7 mph88%29.77 "HgN/A
5:20 AM61 °FPassing clouds.7 mph88%29.77 "HgN/A
4:50 AM61 °FPassing clouds.7 mph94%29.77 "HgN/A
4:20 AM61 °FPassing clouds.8 mph94%29.77 "HgN/A
3:50 AM63 °FPassing clouds.7 mph88%29.77 "HgN/A
3:20 AM63 °FPassing clouds.6 mph83%29.77 "HgN/A
2:50 AM63 °FPassing clouds.8 mph83%29.77 "HgN/A
2:20 AM63 °FPassing clouds.8 mph83%29.77 "HgN/A
1:50 AM63 °FPassing clouds.9 mph83%29.77 "HgN/A
1:20 AM63 °FPassing clouds.6 mph88%29.77 "HgN/A
Weather by CustomWeather, © 2014

See weather overviewHow to use our weather pages